[[{"header":{"parameterUnit":"m.s-1","parameterCategory":1,"la1":30.2992,"la2":30.254,"lo1":-89.0895,"lo2":-89.0443,"dy":0.0025,"dx":0.0025,"nx":19,"ny":19,"refTime":"2026-05-11T21:00:00:Z","depth":0,"parameterNumber":2,"parameterNumberName":"U-component_of_WINDS"},"data":[0,0,0,-2.3444,-2.3446,-2.3519,-2.352,-2.3646,-2.3647,0,0,0,0,0,0,0,0,0,0,0,-2.3436,-2.3438,-2.3444,-2.3446,-2.3519,-2.352,-2.3645,-2.3647,0,0,0,0,0,0,0,0,0,0,0,-2.3436,-2.3437,-2.3439,-2.3446,-2.3519,-2.352,-2.3645,-2.3579,0,0,0,0,0,0,0,0,0,0,-2.3503,-2.3508,-2.3437,-2.3439,-2.3447,-2.3519,-2.352,-2.3576,-2.3584,-2.3624,0,-2.366,0,-2.3656,-2.3657,-2.3658,0,0,0,-2.3436,-2.3502,-2.3509,-2.3439,-2.3448,-2.3519,-2.3484,-2.358,-2.3589,-2.3635,-2.3662,-2.3666,-2.3658,-2.3658,-2.3659,-2.392,-2.3922,0,0,-2.3432,-2.3458,-2.3503,-2.3515,-2.35,-2.3481,-2.3486,-2.3585,-2.3617,-2.3662,-2.3668,-2.366,-2.3659,-2.366,-2.3919,-2.3921,0,0,0,-2.3427,-2.3456,-2.3459,-2.3511,-2.3521,-2.3484,-2.3489,-2.3613,-2.3612,-2.3669,-2.3661,-2.366,-2.3662,-2.3917,-2.3919,-2.403,0,0,0,-2.3424,-2.3453,-2.3458,-2.3475,-2.352,-2.3567,-2.3516,-2.3605,-2.3615,-2.3661,-2.366,-2.3663,-2.3915,-2.3918,-2.4023,-2.408,0,0,0,-2.3427,-2.3453,-2.3468,-2.3476,-2.3508,-2.3565,-2.3569,-2.3606,-2.3611,-2.3658,-2.3664,-2.3913,-2.3917,-2.4017,-2.407,-2.4162,0,0,0,-2.3438,-2.3563,-2.347,-2.3607,-2.3508,-2.363,-2.3568,-2.3658,-2.3711,-2.3661,-2.3915,-2.3919,-2.4015,-2.4063,-2.4155,-2.4248,-2.4287,0,0,-2.3611,-2.3585,-2.3664,-2.3582,-2.3728,-2.3616,-2.378,-2.3805,-2.3786,-2.3878,-2.3884,-2.4025,-2.4069,-2.416,-2.4487,-2.4518,0,0,0,-2.3728,-2.3786,-2.3819,-2.3869,-2.3889,-2.3915,-2.391,-2.3921,-2.3997,-2.3837,-2.4079,-2.4104,-2.4157,-2.4201,-2.4228,-2.4275,-2.3938,-2.3938,-2.3937,-2.4014,-2.3982,-2.4113,-2.4093,-2.4143,-2.4139,-2.418,-2.4193,-2.4146,-2.4204,-2.4234,-2.4435,-2.4487,-2.4507,-2.4556,-2.4274,-2.4275,-2.4275,-2.4275,-2.427,-2.435,-2.4285,-2.439,-2.4359,-2.4448,-2.4451,-2.4416,-2.4498,-2.4409,-2.4454,-2.4366,-2.4542,-2.4584,-2.4283,-2.4282,-2.4281,-2.428,-2.428,-2.4459,-2.4493,-2.4501,-2.4574,-2.4636,-2.461,-2.4693,-2.466,-2.4629,-2.4673,-2.4706,-2.4704,-2.4704,-2.469,-2.469,-2.4691,-2.4692,-2.4692,-2.4693,-2.4655,-2.466,-2.4733,-2.4767,-2.4798,-2.4835,-2.4835,-2.4866,-2.4894,-2.4864,-2.4864,-2.4818,-2.4561,-2.4502,-2.4704,-2.4702,-2.47,-2.4699,-2.4698,-2.4938,-2.4869,-2.4981,-2.5013,-2.5054,-2.5121,-2.5076,-2.5144,-2.5165,-2.5209,-2.5152,-2.4965,-2.4938,-2.4917,-2.4869,-2.5152,-2.5152,-2.5152,-2.5152,-2.5104,-2.5084,-2.5195,-2.5248,-2.5296,-2.5268,-2.5405,-2.5408,-2.5401,-2.5414,-2.5366,-2.5296,-2.5276,-2.5261,-2.5232,-2.5187,-2.5546,-2.5546,-2.5547,-2.528,-2.5265,-2.5385,-2.5373,-2.5404,-2.5433,-2.5562,-2.5632,-2.5608,-2.5562,-2.5425,-2.5409,-2.5295,-2.5259,-2.5215,-2.5171,-2.5086,0,0]},{"header":{"parameterUnit":"m.s-1","parameterCategory":1,"la1":30.2992,"la2":30.254,"lo1":-89.0895,"lo2":-89.0443,"dy":0.0025,"dx":0.0025,"nx":19,"ny":19,"refTime":"2026-05-11T21:00:00:Z","depth":0,"parameterNumber":3,"parameterNumberName":"V-component_of_WINDS"},"data":[0,0,0,0.2789,0.2789,0.2773,0.2773,0.276,0.276,0,0,0,0,0,0,0,0,0,0,0,0.2798,0.2798,0.2789,0.2789,0.2773,0.2773,0.276,0.276,0,0,0,0,0,0,0,0,0,0,0,0.2798,0.2798,0.2798,0.2789,0.2773,0.2773,0.276,0.277,0,0,0,0,0,0,0,0,0,0,0.2783,0.2796,0.2798,0.2798,0.2789,0.2773,0.2773,0.277,0.2769,0.277,0,0.2773,0,0.2767,0.276,0.276,0,0,0,0.2785,0.2797,0.2789,0.2798,0.2789,0.2774,0.2779,0.2769,0.2768,0.2769,0.2773,0.2773,0.2767,0.276,0.276,0.2781,0.2781,0,0,0.2786,0.2798,0.2789,0.2788,0.2792,0.278,0.2779,0.2769,0.2773,0.2773,0.2772,0.2766,0.276,0.276,0.2781,0.2781,0,0,0,0.2791,0.2798,0.279,0.2789,0.2786,0.2779,0.2778,0.2774,0.277,0.2772,0.2766,0.276,0.276,0.2781,0.2781,0.2804,0,0,0,0.2791,0.2801,0.2791,0.2798,0.2786,0.278,0.2784,0.2771,0.2769,0.2766,0.276,0.276,0.278,0.2781,0.2803,0.2813,0,0,0,0.2797,0.2802,0.2801,0.2798,0.2792,0.278,0.2775,0.277,0.2766,0.276,0.276,0.278,0.2781,0.2802,0.2811,0.2821,0,0,0,0.2807,0.2823,0.2802,0.2817,0.2793,0.2795,0.2775,0.2776,0.2774,0.276,0.278,0.2781,0.2802,0.281,0.2819,0.283,0.2835,0,0,0.2833,0.2826,0.2834,0.2815,0.2824,0.2796,0.2808,0.2795,0.2784,0.2783,0.2783,0.2803,0.2811,0.282,0.2867,0.2872,0,0,0,0.2846,0.2851,0.2851,0.285,0.2841,0.2833,0.2817,0.2812,0.281,0.2786,0.281,0.2814,0.2819,0.2823,0.2827,0.283,0.2784,0.2784,0.2784,0.2897,0.2883,0.2894,0.2878,0.2877,0.286,0.2858,0.2848,0.2834,0.284,0.2838,0.2869,0.2874,0.2877,0.288,0.2844,0.2844,0.2844,0.2844,0.2932,0.2936,0.2918,0.2922,0.2906,0.2909,0.2894,0.2884,0.2884,0.2868,0.2872,0.2854,0.2883,0.2884,0.2846,0.2846,0.2846,0.2845,0.2845,0.2962,0.2961,0.2956,0.2952,0.2951,0.2934,0.2935,0.2921,0.2908,0.2912,0.2908,0.2908,0.2904,0.2912,0.2912,0.2912,0.2912,0.2912,0.2912,0.2994,0.2987,0.299,0.2982,0.2979,0.2974,0.2958,0.2954,0.2947,0.2937,0.2936,0.292,0.2889,0.288,0.2914,0.2914,0.2913,0.2913,0.2913,0.3031,0.302,0.3024,0.3022,0.3011,0.301,0.2993,0.2988,0.2983,0.2984,0.2968,0.2947,0.2939,0.2935,0.2928,0.2972,0.2972,0.2972,0.2972,0.3054,0.305,0.305,0.3047,0.3042,0.3027,0.3031,0.302,0.3006,0.3002,0.2994,0.2983,0.2981,0.2974,0.297,0.2962,0.3014,0.3014,0.3014,0.3075,0.3069,0.3075,0.3063,0.3053,0.3046,0.3049,0.3045,0.3027,0.3015,0.2998,0.2996,0.2979,0.2975,0.296,0.2954,0.2941,0,0]}]]